Location: Unspecified
(43.4680°N, 87.1740°E)
Time: 21:02:08
(UTC+00:00)

IRIDIUM 103 - Pass Details

Date: 17 April 2021
Orbit: 776 x 779 km, 86.4° (Epoch: 12 May)

Event Time Altitude Azimuth Distance (km) Brightness Sun altitude
Exits shadow 14:50:38 31° 162° (SSE) 1,349 5.1 -19.3°
Maximum altitude 14:53:07 66° 90° (E) 851 4.3 -19.6°
Drops below altitude 10° 14:58:19 10° 9° (N) 2,339 7.2 -20.4°
Sets 15:00:41 0° 6° (N) 3,271 8.0 -20.7°
